Wind_Speed
16 17 19 21 22 23 25 27 29 30 32 35 38 38 39 41 44 46 45 46 48 48 49 50 50 50 51 52 51 50 52 53 53 52 53 52 52 52 52 52 52 53 52
15 15 16 18 21 22 24 26 28 29 31 33 34 36 37 39 41 44 45 45 47 47 48 50 50 50 51 52 52 51 52 53 54 54 53 53 53 53 53 52 52 53 52
13 14 15 16 17 20 22 23 26 28 30 30 32 33 34 35 38 39 42 43 45 46 47 49 49 50 50 52 53 52 52 53 54 55 55 55 54 53 53 53 52 52 52
13 13 13 14 15 16 19 21 22 23 25 26 29 31 32 33 35 36 38 39 41 43 45 47 48 49 50 50 52 52 53 54 54 54 55 54 53 53 54 54 54 53 52
15 14 15 14 14 16 17 20 21 23 24 26 27 27 29 31 33 35 36 38 39 41 42 44 45 48 49 49 51 52 53 54 53 53 54 54 53 53 53 54 54 53 52
16 16 17 17 17 18 19 20 21 23 24 25 25 25 27 29 30 33 35 36 38 40 41 42 44 46 48 49 50 51 53 52 52 52 52 54 54 54 54 54 53 53 52
17 17 18 18 18 19 20 20 22 22 22 23 24 25 27 29 30 32 33 35 37 39 41 42 43 45 46 47 49 50 52 52 51 50 51 52 54 54 54 53 54 54 53
19 19 19 19 19 19 20 21 21 22 22 23 23 23 25 27 29 31 32 34 35 37 39 41 42 43 44 44 46 47 49 51 51 51 51 51 51 51 51 52 54 54 53
20 20 20 21 21 21 21 22 22 23 24 25 25 26 27 29 30 31 33 34 35 36 37 37 37 38 40 41 43 44 46 47 49 49 50 50 50 50 51 51 52 52 52
21 21 22 22 23 23 24 24 24 25 26 27 28 29 30 31 31 32 33 34 35 36 37 37 38 39 40 41 42 42 43 44 46 47 47 48 49 49 50 50 51 52 52
23 24 24 25 25 25 25 25 26 27 28 28 29 31 32 32 32 32 33 33 35 36 37 39 39 40 40 41 42 42 42 42 43 44 44 45 46 47 47 48 49 50 50
25 25 25 25 25 25 25 25 26 27 28 28 29 30 31 30 31 31 32 33 34 36 37 38 40 41 42 42 42 42 42 42 42 43 43 43 44 45 46 46 47 48 49
27 26 26 26 27 27 27 27 28 28 29 29 29 30 30 30 31 32 32 33 34 36 38 39 40 41 42 42 43 42 42 42 42 42 43 43 44 44 44 44 44 44 46
27 27 27 27 28 28 28 29 29 29 30 29 30 30 31 32 32 33 34 35 36 37 39 40 41 42 42 42 43 43 43 44 43 42 42 42 43 44 43 42 42 42 43
29 28 28 28 28 28 29 29 29 30 30 30 30 31 32 32 34 35 36 37 38 38 39 41 41 42 42 42 43 43 43 43 43 43 43 43 43 43 43 42 41 40 40
29 29 29 29 29 29 29 30 30 31 32 33 33 34 34 34 35 35 36 37 38 39 40 41 41 42 42 42 42 42 42 42 43 43 43 42 42 42 42 41 41 40 39
30 30 30 31 31 31 31 31 31 32 33 34 34 35 36 36 36 37 37 37 38 40 41 41 42 42 42 42 42 42 42 42 42 42 42 42 42 42 42 41 40 39 37
31 31 31 32 32 33 33 33 33 33 34 35 35 36 37 37 38 38 39 39 40 41 42 42 43 43 42 42 42 42 42 42 42 42 41 41 41 41 41 40 39 38 37
32 32 32 33 33 34 34 35 35 35 35 35 36 37 37 38 39 40 40 41 41 42 42 43 43 42 42 41 41 41 41 40 41 41 41 41 40 39 39 38 37 37 36
32 33 33 34 34 35 35 35 35 35 36 36 36 37 38 39 39 40 41 42 42 42 43 42 42 41 41 41 40 39 39 39 39 39 40 40 39 39 37 36 35 35 35
33 33 34 34 35 35 35 35 36 36 36 37 37 38 39 40 40 40 41 42 42 42 42 41 41 40 40 39 38 38 38 37 37 37 37 38 38 37 35 33 32 32 31
34 34 34 35 35 36 36 36 37 37 38 38 39 40 40 41 41 41 41 41 41 41 40 39 39 39 38 37 37 37 37 36 36 36 35 35 34 33 32 31 30 29 29
35 35 35 36 36 37 37 37 38 39 39 40 40 41 42 42 42 42 42 41 41 40 40 39 39 39 38 37 36 36 35 34 33 33 31 30 29 29 28 28 27 26 26
36 36 36 37 37 38 38 38 39 40 41 41 42 43 43 43 43 42 42 41 41 40 40 39 39 38 37 36 35 35 34 33 32 31 29 28 27 27 27 26 26 25 25
36 37 37 37 38 39 39 40 40 41 41 42 42 43 43 43 42 41 41 40 39 39 38 38 38 37 36 35 34 32 31 31 30 28 27 26 26 25 25 25 24 24 24
37 37 37 38 38 39 40 40 41 41 41 42 42 42 42 42 41 40 39 38 38 37 36 36 35 35 34 32 31 30 29 28 27 26 25 24 24 23 23 23 23 23 23
Wind_Direction
272 266 259 256 252 249 248 248 246 249 249 249 249 250 250 250 249 248 250 251 252 253 254 255 257 258 259 261 264 267 267 267 269 269 270 270 269 269 269 269 268 268 269
275 271 265 259 255 253 252 251 250 252 251 251 253 253 253 252 252 252 254 254 254 255 256 257 258 260 262 264 266 267 267 268 269 269 270 271 270 269 268 269 269 269 269
279 276 273 266 262 259 258 258 258 256 254 256 256 256 255 255 254 255 256 255 256 257 259 260 261 262 265 266 266 267 268 269 270 270 269 270 270 268 267 267 268 268 269
283 278 275 272 270 266 261 261 262 261 260 261 259 258 258 258 257 256 256 256 257 258 260 261 262 263 265 267 268 269 270 271 271 270 270 271 270 268 266 266 266 267 268
286 282 280 278 276 270 267 267 266 267 268 266 264 265 264 262 259 259 259 259 260 261 261 262 263 265 267 269 270 270 271 271 271 271 271 271 270 269 267 266 266 266 267
291 287 283 281 277 274 273 271 269 268 270 269 268 270 269 265 265 264 263 263 263 264 265 266 267 267 268 270 271 271 271 271 271 271 271 271 270 269 268 267 266 266 266
292 289 285 281 278 276 276 274 272 270 272 273 271 271 272 269 268 267 267 267 267 267 268 269 271 271 271 272 273 273 272 271 271 271 271 271 270 269 268 266 265 265 265
292 291 288 284 280 279 280 279 279 277 277 277 273 274 275 275 272 271 271 272 274 274 273 273 274 274 274 275 274 274 273 273 272 271 272 272 271 270 268 266 265 264 265
293 290 288 286 282 281 281 281 282 281 280 280 279 278 279 278 276 274 275 275 276 277 277 277 278 277 277 277 278 278 277 274 272 272 273 272 271 270 269 267 265 264 264
295 291 288 286 284 283 283 282 282 282 282 282 281 282 282 281 280 279 278 278 278 278 278 279 280 281 280 280 281 280 279 277 275 274 273 272 271 270 268 267 266 265 265
293 290 287 285 284 284 285 285 285 284 283 283 282 282 282 282 281 281 280 279 280 280 279 279 281 283 283 283 283 282 280 279 278 276 275 273 272 271 269 269 268 266 266
294 291 288 285 284 283 283 284 285 285 284 284 285 285 284 283 282 282 282 282 282 282 282 281 282 283 284 283 282 281 281 279 279 278 277 275 274 273 271 270 269 267 267
295 293 290 288 287 285 284 283 284 285 285 285 286 286 286 285 284 284 284 285 285 284 284 283 283 284 285 283 282 281 280 279 279 278 278 277 275 274 273 270 268 268 267
294 293 291 289 287 286 285 285 284 285 286 287 287 287 287 286 285 285 284 284 286 286 285 285 285 286 286 284 282 281 281 280 280 279 277 277 277 275 273 269 269 268 267
293 291 290 290 289 288 286 287 287 287 288 288 288 288 288 287 286 286 285 285 285 286 286 285 286 287 286 286 285 283 281 280 279 279 278 277 277 277 274 271 271 271 268
292 291 290 290 290 288 288 288 289 290 290 290 289 289 288 288 288 287 286 286 287 287 286 287 287 286 286 286 286 285 283 281 280 278 277 276 276 276 274 271 271 271 268
290 291 291 291 290 289 289 289 290 291 292 292 291 290 290 289 288 288 287 287 288 288 289 289 289 288 287 287 287 286 284 282 281 279 277 276 275 275 274 271 270 269 267
290 291 292 291 291 290 290 291 291 291 292 292 292 292 291 290 289 289 288 288 289 289 289 290 291 290 289 288 287 286 284 282 282 280 278 277 276 276 273 270 268 266 263
290 291 291 291 291 291 292 292 291 292 292 292 292 293 293 292 291 290 290 290 290 290 290 291 291 290 290 290 289 287 284 283 282 280 278 277 277 277 274 269 266 264 261
289 290 291 291 292 291 292 292 291 292 292 292 293 293 293 293 293 292 291 291 291 291 291 291 291 291 290 290 289 288 286 284 282 280 278 277 276 276 274 269 266 264 261
287 289 290 291 292 292 292 292 292 292 292 292 293 293 293 293 293 293 293 293 293 292 292 291 291 291 290 289 288 287 286 285 284 282 280 278 276 274 272 268 266 264 262
287 288 290 291 292 292 292 292 292 292 293 293 294 295 294 294 294 293 293 293 293 293 293 292 292 291 291 290 288 287 285 285 285 283 281 278 274 271 268 265 264 261 259
288 288 290 291 292 292 292 292 292 292 293 294 294 295 296 296 295 294 294 293 293 293 293 292 291 291 291 290 289 287 285 284 284 284 281 277 272 268 265 264 262 259 256
288 289 289 290 291 292 292 292 292 293 293 294 295 296 296 297 296 294 294 294 293 293 293 292 291 291 290 289 288 288 286 284 282 280 277 275 269 264 261 260 258 254 253
289 289 290 290 291 292 292 292 292 293 294 295 296 297 297 297 296 295 294 293 294 294 294 293 292 291 290 289 288 287 285 283 280 277 274 270 265 261 257 256 255 252 251
289 290 290 291 292 292 292 293 293 293 294 295 297 297 298 298 297 295 294 294 294 294 295 295 295 293 291 290 288 285 283 281 278 275 271 267 263 260 257 254 253 251 250
Height
5638 5637 5636 5637 5637 5638 5640 5641 5643 5645 5647 5649 5651 5653 5654 5657 5659 5661 5664 5666 5668 5671 5673 5675 5677 5678 5679 5679 5679 5679 5678 5678 5679 5680 5680 5679 5677 5677 5677 5676 5676 5676 5677
5634 5633 5632 5632 5632 5633 5634 5635 5636 5637 5639 5640 5642 5643 5644 5646 5647 5650 5652 5654 5656 5658 5660 5662 5664 5665 5666 5666 5665 5665 5664 5663 5663 5664 5664 5663 5663 5662 5662 5661 5661 5661 5662
5630 5629 5628 5627 5627 5628 5628 5629 5630 5630 5631 5632 5633 5634 5635 5636 5637 5639 5640 5642 5644 5646 5648 5649 5651 5652 5653 5653 5652 5651 5650 5649 5648 5648 5648 5648 5647 5647 5646 5646 5646 5646 5646
5627 5625 5624 5623 5623 5623 5623 5623 5623 5623 5623 5624 5624 5624 5625 5626 5627 5628 5629 5630 5632 5633 5635 5636 5637 5638 5639 5638 5637 5636 5635 5634 5633 5632 5632 5632 5631 5631 5630 5631 5631 5632 5632
5622 5621 5620 5619 5619 5618 5617 5617 5616 5616 5617 5617 5616 5616 5616 5616 5617 5618 5619 5619 5620 5621 5622 5623 5624 5625 5625 5624 5623 5622 5620 5619 5618 5617 5616 5615 5615 5614 5615 5615 5615 5616 5617
5618 5617 5615 5615 5614 5613 5612 5611 5611 5610 5610 5609 5608 5608 5607 5607 5608 5608 5609 5609 5610 5610 5611 5611 5611 5611 5611 5610 5608 5607 5605 5603 5602 5601 5600 5599 5599 5598 5598 5598 5598 5600 5602
5614 5612 5611 5609 5608 5608 5607 5605 5604 5603 5602 5601 5601 5600 5599 5599 5599 5599 5598 5598 5599 5599 5599 5599 5599 5598 5597 5595 5594 5592 5590 5588 5586 5585 5584 5583 5582 5582 5581 5582 5582 5583 5585
5609 5606 5605 5603 5602 5601 5600 5599 5597 5596 5595 5594 5593 5592 5591 5590 5590 5589 5589 5588 5588 5588 5588 5587 5586 5585 5584 5582 5580 5578 5575 5574 5572 5570 5569 5568 5566 5565 5564 5565 5565 5566 5568
5603 5601 5599 5597 5596 5595 5593 5592 5590 5589 5588 5586 5585 5584 5582 5581 5580 5579 5578 5578 5577 5577 5576 5575 5574 5572 5571 5568 5566 5564 5562 5560 5557 5555 5553 5551 5550 5549 5548 5548 5548 5549 5551
5597 5594 5592 5591 5589 5587 5586 5584 5583 5581 5580 5578 5576 5575 5573 5571 5570 5569 5567 5566 5566 5565 5564 5563 5561 5559 5557 5555 5552 5550 5548 5546 5543 5540 5538 5536 5534 5533 5532 5531 5532 5533 5534
5589 5587 5584 5582 5581 5579 5577 5576 5574 5572 5571 5569 5567 5565 5563 5561 5559 5557 5556 5555 5554 5553 5552 5551 5549 5546 5544 5541 5539 5537 5534 5532 5529 5526 5524 5522 5520 5518 5517 5516 5516 5516 5517
5581 5578 5575 5573 5572 5570 5569 5567 5565 5563 5561 5559 5557 5555 5552 5550 5548 5547 5545 5544 5543 5542 5540 5538 5536 5533 5531 5528 5525 5523 5520 5517 5515 5512 5510 5508 5506 5504 5503 5501 5501 5501 5501
5572 5569 5566 5565 5563 5562 5560 5558 5556 5554 5552 5550 5547 5545 5542 5540 5538 5537 5535 5533 5531 5530 5528 5526 5523 5520 5517 5515 5512 5509 5506 5503 5501 5498 5496 5494 5492 5490 5488 5487 5486 5486 5486
5564 5560 5558 5556 5554 5553 5551 5549 5547 5545 5543 5540 5538 5535 5533 5531 5529 5527 5525 5523 5520 5518 5515 5513 5510 5507 5504 5501 5498 5495 5492 5489 5487 5485 5483 5481 5478 5476 5473 5473 5473 5472 5472
5554 5552 5549 5547 5545 5543 5541 5539 5537 5535 5533 5530 5528 5526 5523 5521 5519 5516 5514 5511 5509 5506 5503 5500 5497 5493 5490 5487 5484 5480 5477 5475 5472 5470 5468 5466 5464 5462 5460 5460 5459 5458 5458
5545 5542 5540 5538 5536 5534 5532 5530 5527 5525 5522 5520 5517 5515 5512 5510 5507 5505 5502 5499 5496 5493 5490 5487 5483 5480 5477 5473 5470 5466 5463 5460 5458 5456 5454 5452 5451 5449 5448 5447 5446 5446 5446
5535 5533 5531 5529 5527 5525 5522 5520 5518 5516 5512 5510 5507 5504 5501 5498 5496 5493 5490 5487 5484 5481 5477 5474 5470 5467 5463 5459 5456 5453 5450 5447 5444 5442 5440 5439 5437 5436 5435 5434 5433 5433 5433
5526 5524 5522 5520 5517 5515 5513 5510 5508 5505 5503 5499 5496 5493 5490 5487 5484 5481 5478 5475 5472 5468 5464 5460 5457 5452 5448 5445 5442 5439 5436 5433 5431 5429 5427 5425 5423 5422 5421 5421 5420 5421 5422
5516 5514 5512 5510 5508 5505 5503 5500 5497 5495 5492 5489 5486 5482 5479 5476 5472 5469 5465 5462 5458 5455 5451 5447 5442 5438 5434 5431 5427 5425 5422 5419 5417 5415 5413 5412 5411 5410 5409 5408 5409 5409 5410
5507 5504 5502 5500 5498 5495 5493 5490 5487 5484 5481 5478 5475 5471 5468 5464 5460 5457 5453 5449 5445 5441 5437 5433 5429 5425 5421 5417 5414 5411 5409 5406 5404 5402 5400 5399 5398 5398 5397 5397 5397 5398 5399
5497 5495 5492 5490 5487 5485 5482 5479 5476 5473 5470 5467 5463 5460 5456 5452 5448 5444 5440 5436 5432 5428 5424 5420 5415 5411 5408 5404 5401 5399 5396 5394 5392 5390 5388 5387 5386 5386 5386 5386 5386 5387 5388
5487 5485 5483 5480 5477 5475 5472 5469 5466 5463 5459 5456 5452 5448 5444 5440 5436 5432 5428 5423 5419 5415 5411 5407 5403 5399 5395 5392 5389 5387 5384 5382 5380 5379 5377 5376 5375 5375 5376 5376 5377 5378 5379
5476 5474 5472 5469 5467 5464 5461 5458 5454 5451 5448 5444 5440 5436 5431 5427 5423 5419 5415 5410 5406 5402 5398 5394 5391 5387 5383 5380 5377 5375 5373 5371 5370 5368 5367 5366 5365 5366 5366 5367 5368 5369 5370
5466 5463 5461 5458 5455 5453 5449 5446 5443 5439 5436 5432 5428 5423 5419 5414 5410 5406 5402 5397 5393 5389 5386 5382 5378 5375 5371 5368 5366 5364 5362 5360 5359 5358 5357 5356 5356 5357 5358 5358 5360 5361 5362
5454 5452 5449 5447 5444 5441 5438 5434 5431 5427 5423 5419 5415 5411 5406 5401 5397 5392 5388 5385 5381 5377 5373 5369 5366 5362 5359 5357 5354 5353 5351 5350 5349 5348 5348 5348 5348 5348 5349 5351 5352 5353 5354
5443 5440 5438 5435 5432 5429 5425 5422 5418 5414 5410 5406 5402 5398 5393 5389 5384 5380 5376 5372 5369 5365 5362 5358 5355 5351 5348 5346 5344 5342 5341 5340 5339 5339 5339 5339 5340 5341 5342 5343 5344 5346 5347